Regional Weather Roundup
Issued by NWS

Home | Current Version | Previous Version | Text Only | Print | Product List | Glossary On
Versions: 1 2 3 4 5 6 7 8 9 10 11 12 13 14 15 16 17 18 19 20 21 22 23 24 25 26 27 28 29 30 31 32 33 34 35 36 37 38 39 40 41 42 43 44 45 46 47 48 49 50
000
ASUS43 KMPX 241210
RWRMN
WEATHER ROUNDUP FOR MINNESOTA
NATIONAL WEATHER SERVICE TWIN CITIES/CHANHASSEN MN
700 AM CDT SUN JUL 24 2016


NOTE: "FAIR" INDICATES FEW OR NO CLOUDS BELOW 12,000 FEET WITH NO
SIGNIFICANT WEATHER AND/OR OBSTRUCTIONS TO VISIBILITY. N/A MEANS
CURRENT SKY AND/OR WEATHER CONDITIONS ARE NOT AVAILABLE.

MNZ060>063-068>070-241300-
   Twin Cities Metro

CITY           SKY/WX    TMP DP  RH WIND       PRES   REMARKS
TWIN CITIES    PTSUNNY   73  69  87 NW6       29.81R
6HR MIN TEMP:  73; 6HR MAX TEMP:  77; 6HR PCP: TRACE;

ST PAUL        SUNNY     74  71  91 W8        29.80R
CRYSTAL        SUNNY     73  68  84 CALM      29.80R
BLAINE         MOSUNNY   73  72  94 CALM      29.81R
LAKEVILLE      SUNNY     72  70  94 NW8       29.81R
EDEN PRAIRIE   SUNNY     73  68  84 W5        29.81R
6HR MIN TEMP:  73; 6HR MAX TEMP:  76; 6HR PCP: TRACE;

LAKEVILLE      SUNNY     72  70  94 NW8       29.81R
SOUTH ST PAUL  SUNNY     75  71  87 W8        29.80R
LAKE ELMO      PTSUNNY   72  70  94 CALM      29.82R
$$
MNZ001>005-007-008-013>017-022>024-027-028-241300-
   Northwest Minnesota

CITY           SKY/WX    TMP DP  RH WIND       PRES   REMARKS
BEMIDJI        SUNNY     63  59  88 W10       29.80R
HALLOCK        CLEAR     63  61  94 W7        29.79R
ROSEAU         SUNNY     63  57  82 W8        29.76R
WARROAD        SUNNY     63  57  82 W8G16     29.75R
THIEF RVR FALL CLEAR     62  60  93 W9        29.82R
CROOKSTON      CLEAR     63  61  94 W8        29.83R
FOSSTON        CLEAR     63  59  88 W10       29.83R
DETROIT LAKES  CLEAR     63  59  88 NW14      29.86R
MOORHEAD       CLEAR     64  61  88 W9        29.87R
PARK RAPIDS    CLEAR     65  61  87 W9        29.82R
MAHNOMEN       FAIR      61  60  94 W8        29.83R
$$
MNZ006-009>011-018-025>026-241300-
   North Central Minnesota

CITY           SKY/WX    TMP DP  RH WIND       PRES   REMARKS
BAUDETTE       SUNNY     63  60  90 W14       29.73R
FLAG ISLAND    CLOUDY    64  61  88 NW20G25   29.70R
INTL FALLS     MOSUNNY   68  64  87 W15       29.71R
6HR MIN TEMP:  65; 6HR MAX TEMP:  71; 6HR PCP: TRACE;

WASKISH        SUNNY     66  61  82 W18G24    29.76R
BIG FORK       SUNNY     68  64  88 W6        29.76R
LONGVILLE      SUNNY     64  64 100 W5        29.80R
GRAND RAPIDS   SUNNY     68  66  93 W9        29.79R
CRANE LAKE     PTSUNNY   66  64  94 SW3       29.72S
ORR            CLOUDY    70  64  83 CALM      29.70S
COOK           PTSUNNY   68  66  94 SW7       29.74R
WALKER         FAIR      64  61  91 W8        29.80R
$$
MNZ012-019>021-037-241300-
   Northeast Minnesota

CITY           SKY/WX    TMP DP  RH WIND       PRES   REMARKS
DULUTH         MOSUNNY   66  66 100 W9        29.76R
6HR MIN TEMP:  62; 6HR MAX TEMP:  68; 6HR PCP:  0.03;

ELY            CLOUDY    66  66 100 CALM      29.72S
HIBBING        CLOUDY    64  64 100 VRB3      29.75S FOG
EVELETH        CLOUDY    66  65  98 W8        29.76R FOG
DULUTH HARBOR  SUNNY     64  63  94 SW10      29.75R
TWO HARBORS    HAZE      68  63  83 SW5       29.73R VSB 1/2
SILVER BAY     FOG       64  64 100 CALM      29.72S VSB<1/4
GRAND MARAIS     N/A     60  58  92 E5        29.71F
G MARAIS ARPRT FOG       63  61  94 CALM      29.75F VSB 1
$$
MNZ029>031-032-039>041-046>048-054>057-064-241300-
   West Central Minnesota

CITY           SKY/WX    TMP DP  RH WIND       PRES   REMARKS
FERGUS FALLS   CLEAR     63  61  94 NW8       29.88R
WHEATON        CLEAR     66  63  88 W5        29.91R
MORRIS         CLEAR     64  63  94 W10       29.88R
ALEXANDRIA     CLEAR     66  61  84 NW9       29.88R
ELBOW LAKE     FAIR      62  60  94 NW7       29.88R
WADENA         CLEAR     64  61  88 W8        29.84R
GLENWOOD       CLEAR     64  61  88 W12       29.88R
APPLETON       CLEAR     66  61  82 NW10      29.89R
BENSON         CLEAR     66  61  82 NW9       29.89R
ORTONVILLE     CLEAR     66  59  77 NW10      29.90R
MADISON        PTCLDY    66  63  88 NW7       29.91R
WILLMAR        FAIR      68  64  88 W9        29.89R
$$
MNZ033>034-036-042>043-049>051-058-059-241300-
   Central Minnesota

CITY           SKY/WX    TMP DP  RH WIND       PRES   REMARKS
ST CLOUD       SUNNY     70  69  97 NW7       29.81R
6HR MIN TEMP:  69; 6HR MAX TEMP:  74;

SAUK CENTRE    FAIR      66  64  92 W8        29.85R
PAYNESVILLE    CLEAR     67  67 100 W8        29.86R
AITKIN         SUNNY     70  64  83 W5        29.78R
PINE RIVER     SUNNY     66  66 100 W5        29.84R
BRAINERD       SUNNY     69  66  90 W7        29.81R
STAPLES        CLEAR     64  64 100 W7        29.83R
LONG PRAIRIE   FAIR      66  63  88 SW8       29.85R
LITTLE FALLS   SUNNY     68  64  88 W7        29.82S
LITCHFIELD     CLEAR     72  70  94 W9        29.85R
BUFFALO        SUNNY     70  67  88 CALM      29.83R
MAPLE LAKE     SUNNY     72  68  89 W5        29.83R
HUTCHINSON     CLEAR     69  68  96 W6        29.86R
$$
MNZ037-044-045-052-053-241300-
   East Central Minnesota

CITY           SKY/WX    TMP DP  RH WIND       PRES   REMARKS
PRINCETON      SUNNY     72  70  94 SW3       29.81R
MORA           MOSUNNY   64  64 100 CALM      29.82R
CAMBRIDGE      MOSUNNY   72  64  78 CALM      29.79R
RUSH CITY      MOSUNNY   68  67  95 CALM      29.81R
MOOSE LAKE     FOG       64  63  94 CALM      29.76S VSB 1/4
HINCKLEY       CLOUDY    68  68 100 W7        29.79S FOG
CLOQUET        SUNNY     64  63  94 S3        29.77R
MCGREGOR       SUNNY     66  64  94 W5        29.79R
$$
MNZ071>073-080-081-089-090-097-098-241300-
   Southwest Minnesota

CITY           SKY/WX    TMP DP  RH WIND       PRES   REMARKS
MONTEVIDEO     CLEAR     68  66  94 N12       29.91R
GRANITE FALLS  CLEAR     68  65  91 W8        29.91R
CANBY          CLEAR     69  63  81 NW7       29.93R
MARSHALL       CLEAR     67  63  87 NW8       29.92R
REDWOOD FALLS  CLEAR     69  66  90 NW9       29.88R
OLIVIA         CLEAR     70  66  88 NW9       29.87R
PIPESTONE      MOCLDY    70  66  88 NW7       29.94R
WINDOM         CLEAR     70  64  83 NW7       29.90R
WORTHINGTON    CLEAR     68  62  81 NW8       29.93R
JACKSON        CLEAR     70  64  83 NW7       29.91R
TRACY          CLEAR     69  63  81 W5        29.92R
SLAYTON        CLEAR     65  62  89 W8        29.94R
$$
MNZ065>067-074>077-082>085-091>093-241300-
   South Central Minnesota

CITY           SKY/WX    TMP DP  RH WIND       PRES   REMARKS
MANKATO        CLEAR     72  66  83 NW7       29.85R
NEW ULM        CLEAR     70  68  94 NW9       29.86R
ST JAMES       CLEAR     66  64  94 NW6       29.88R
FAIRMONT       CLEAR     72  48  43 NW13      29.86R
GLENCOE        CLEAR     70  69  97 W5        29.83R
FARIBAULT      MOSUNNY   73  70  88 NW5       29.83R
OWATONNA       CLOUDY    75  72  88 NW6       29.83R
WASECA         PTCLDY    72  68  88 NW8       29.85R
ALBERT LEA     CLOUDY    75  73  94 NW6       29.83R FOG
$$
MNZ078>079-086>088-094>096-241300-
   Southeast Minnesota

CITY           SKY/WX    TMP DP  RH WIND       PRES   REMARKS
ROCHESTER      CLOUDY    76  75  97 W9        29.82R FOG
6HR MIN TEMP:  72; 6HR MAX TEMP:  76;

RED WING       CLOUDY    77  73  88 CALM      29.77S
STANTON        CLOUDY    75  70  83 NW8       29.80R
DODGE CENTER   CLOUDY    75  75 100 NW14G21   29.82R FOG
WINONA         PTSUNNY   75  72  88 CALM      29.78R
AUSTIN         CLOUDY    75  73  94 W5        29.82R
PRESTON        SUNNY     75  72  91 SW7       29.81S
$$
ABBREVIATIONS USED IN REMARKS
   TC - TEMPERATURES IN CELSIUS
  WCI - WIND CHILL INDEX
   HX - HEAT INDEX
  VSB - VISIBILITY
$$



USA.gov is the U.S. government's official web portal to all federal, state and local government web resources and services.